Weather History for Kimball, NE

Change the Weather History Date:

Saturday, June 22, 2013

  Actual Average (KSNY) Record (KSNY)
Temperature  
Mean Temperature 68 °F 70 °F  
Max Temperature 81 °F 85 °F 97 °F (1997)
Min Temperature 54 °F 55 °F 35 °F (1989)
Degree Days  
Heating Degree Days 0 1  
Month to date heating degree days 53  
Since 1 June heating degree days 53  
Since 1 July heating degree days 6215  
Cooling Degree Days 2 6  
Month to date cooling degree days 79  
Year to date cooling degree days 101  
Since 1 June cooling degree days 79  
Growing Degree Days 18 (Base 50)    
Moisture  
Dew Point 53 °F    
Average Humidity 64    
Maximum Humidity 86    
Minimum Humidity 42    
Precipitation  
Precipitation 0.00 in 0.11 in 1.58 in (1948)
Month to date precipitation 2.43  
Year to date precipitation 9.19  
Sea Level Pressure  
Sea Level Pressure 29.92 in    
Wind  
Wind Speed 14 mph (ENE)    
Max Wind Speed 30 mph    
Max Gust Speed 37 mph    
Visibility 10 miles    
Events Rain , Thunderstorm    
T = Trace of Precipitation, MM = Missing Value Source: NWS Daily Summary

Daily Weather History Graph

Daily Weather History Graph

Search for Another Location

Airport:

Trip Planner

Search our weather history database for the weather conditions in past years. The results will help you decide how hot, cold, wet, or windy it might be!

Date:

Astronomy

Jun. 22, 2013 Rise Set
Actual Time 6:22 AM CDT 9:31 PM CDT
Civil Twilight 5:48 AM CDT 10:05 PM CDT
Nautical Twilight 5:05 AM CDT 10:48 PM CDT
Astronomical Twilight 4:13 AM CDT 11:39 PM CDT
Moon 8:47 PM CDT (6/22) 5:38 AM CDT (6/22)
Length of Visible Light 16h 16m
Length of Day
15h 08m
Waxing Gibbous, 99% of the Moon is Illuminated
Jun 22
Waxing Gibbous
Jun 23
Full
Jun 29
Last Quarter
Jul 8
New
Jul 15
First Quarter

Hourly Weather History & Observations

Time (CDT) Temp. Heat Index Dew Point Humidity Pressure Visibility Wind Dir Wind Speed Gust Speed Precip Events Conditions
12:15 AM 66.0 °F - 46.0 °F 48% 29.92 in 10.0 mi ENE 25.3 mph 29.9 mph N/A   Clear
12:35 AM 65.5 °F - 46.8 °F 51% 29.92 in 10.0 mi ENE 29.9 mph 35.7 mph N/A Thunderstorm Clear
12:55 AM 64.4 °F - 47.7 °F 55% 29.92 in 10.0 mi ENE 26.5 mph 36.8 mph N/A   Clear
1:15 AM 63.5 °F - 49.3 °F 60% 29.92 in 10.0 mi ENE 18.4 mph 31.1 mph N/A   Clear
1:35 AM 61.7 °F - 51.1 °F 68% 29.93 in 10.0 mi NE 18.4 mph 24.2 mph N/A Rain Light Rain
1:55 AM 61.3 °F - 51.1 °F 69% 29.94 in 10.0 mi NE 11.5 mph 18.4 mph N/A   Scattered Clouds
2:15 AM 61.5 °F - 51.1 °F 69% 29.93 in 10.0 mi NE 13.8 mph - N/A   Scattered Clouds
2:35 AM 61.7 °F - 50.7 °F 67% 29.92 in 10.0 mi NE 17.3 mph 23.0 mph N/A   Scattered Clouds
2:55 AM 62.2 °F - 50.0 °F 64% 29.91 in 10.0 mi East 21.9 mph 31.1 mph N/A   Clear
3:15 AM 61.2 °F - 50.4 °F 68% 29.90 in 10.0 mi East 19.6 mph 27.6 mph N/A   Clear
3:35 AM 59.9 °F - 51.3 °F 73% 29.91 in 10.0 mi East 17.3 mph 23.0 mph N/A   Clear
3:55 AM 59.2 °F - 52.2 °F 78% 29.92 in 10.0 mi East 13.8 mph - N/A   Clear
4:15 AM 58.5 °F - 52.7 °F 81% 29.93 in 10.0 mi ESE 9.2 mph - N/A   Clear
4:35 AM 57.6 °F - 52.5 °F 83% 29.94 in 10.0 mi NE 5.8 mph - N/A   Clear
4:55 AM 56.7 °F - 51.6 °F 83% 29.97 in 10.0 mi NNW 8.1 mph - N/A   Clear
5:15 AM 54.9 °F - 50.9 °F 86% 29.98 in 10.0 mi NW 4.6 mph - N/A   Clear
5:35 AM 56.5 °F - 51.3 °F 83% 29.98 in 10.0 mi NNW 5.8 mph - N/A   Clear
5:55 AM 55.0 °F - 50.7 °F 85% 29.98 in 10.0 mi WNW 6.9 mph - N/A   Scattered Clouds
6:15 AM 55.9 °F - 50.9 °F 83% 29.98 in 10.0 mi West 3.5 mph - N/A   Mostly Cloudy
6:35 AM 55.2 °F - 50.4 °F 84% 29.98 in 10.0 mi WNW 4.6 mph - N/A   Scattered Clouds
6:55 AM 54.9 °F - 50.4 °F 85% 30.00 in 10.0 mi WNW 6.9 mph - N/A   Scattered Clouds
7:15 AM 55.6 °F - 50.5 °F 83% 29.99 in 10.0 mi NW 5.8 mph - N/A   Mostly Cloudy
7:35 AM 57.2 °F - 51.8 °F 82% 29.99 in 10.0 mi WNW 6.9 mph - N/A   Overcast
7:55 AM 58.6 °F - 52.5 °F 80% 30.00 in 10.0 mi WNW 6.9 mph - N/A   Overcast
8:15 AM 59.7 °F - 52.9 °F 78% 30.00 in 10.0 mi NW 6.9 mph - N/A   Overcast
8:35 AM 60.1 °F - 53.1 °F 78% 30.01 in 10.0 mi NW 5.8 mph - N/A   Overcast
8:55 AM 61.7 °F - 53.4 °F 74% 30.01 in 10.0 mi North 3.5 mph - N/A   Overcast
9:15 AM 62.8 °F - 53.6 °F 72% 30.00 in 10.0 mi North 5.8 mph - N/A   Overcast
9:35 AM 63.9 °F - 53.1 °F 68% 30.00 in 10.0 mi NE 3.5 mph - N/A   Overcast
9:55 AM 65.7 °F - 52.2 °F 62% 30.00 in 10.0 mi NE 4.6 mph - N/A   Overcast
10:15 AM 65.8 °F - 52.2 °F 61% 30.00 in 10.0 mi ENE 6.9 mph - N/A   Overcast
10:35 AM 66.9 °F - 52.0 °F 59% 30.00 in 10.0 mi East 10.4 mph - N/A   Overcast
10:55 AM 66.6 °F - 52.3 °F 60% 30.00 in 10.0 mi East 8.1 mph - N/A   Overcast
11:15 AM 67.3 °F - 52.7 °F 59% 29.99 in 10.0 mi East 6.9 mph - N/A   Overcast
11:35 AM 69.4 °F - 52.9 °F 56% 29.98 in 10.0 mi East 8.1 mph - N/A   Mostly Cloudy
11:55 AM 71.2 °F - 54.0 °F 54% 29.98 in 10.0 mi East 10.4 mph - N/A   Scattered Clouds
12:15 PM 71.6 °F - 54.7 °F 55% 29.97 in 10.0 mi ENE 8.1 mph - N/A   Scattered Clouds
12:35 PM 72.7 °F - 55.0 °F 54% 29.96 in 10.0 mi ESE 8.1 mph - N/A   Clear
12:55 PM 73.2 °F - 55.8 °F 54% 29.96 in 10.0 mi East 5.8 mph - N/A   Clear
1:15 PM 74.5 °F - 55.9 °F 52% 29.94 in 10.0 mi East 8.1 mph - N/A   Clear
1:35 PM 76.1 °F - 55.9 °F 50% 29.94 in 10.0 mi ESE 6.9 mph 16.1 mph N/A   Clear
1:55 PM 76.6 °F - 56.1 °F 49% 29.93 in 10.0 mi ESE 9.2 mph - N/A   Clear
2:15 PM 78.1 °F - 56.1 °F 47% 29.93 in 10.0 mi SE 10.4 mph - N/A   Clear
2:35 PM 78.3 °F - 56.7 °F 47% 29.92 in 10.0 mi East 12.7 mph 18.4 mph N/A   Clear
2:55 PM 78.6 °F - 56.8 °F 47% 29.91 in 10.0 mi ESE 11.5 mph 19.6 mph N/A   Clear
3:15 PM 79.2 °F - 57.7 °F 48% 29.90 in 10.0 mi ESE 12.7 mph 20.7 mph N/A   Clear
3:35 PM 79.0 °F - 57.6 °F 48% 29.89 in 10.0 mi East 16.1 mph 19.6 mph N/A   Clear
3:55 PM 80.6 °F 80.9 °F 58.1 °F 46% 29.87 in 10.0 mi ESE 13.8 mph 23.0 mph N/A   Clear
4:15 PM 81.1 °F 81.3 °F 57.9 °F 45% 29.86 in 10.0 mi ESE 20.7 mph 26.5 mph N/A   Clear
4:35 PM 81.1 °F 81.3 °F 57.9 °F 45% 29.85 in 10.0 mi ESE 18.4 mph 25.3 mph N/A   Clear
4:55 PM 81.5 °F 81.5 °F 57.9 °F 44% 29.83 in 10.0 mi ESE 19.6 mph 27.6 mph N/A   Clear
5:15 PM 81.7 °F 81.5 °F 57.4 °F 43% 29.80 in 10.0 mi ESE 20.7 mph 28.8 mph N/A   Clear
5:35 PM 81.5 °F 81.3 °F 56.7 °F 42% 29.77 in 10.0 mi SE 23.0 mph 28.8 mph N/A   Clear
5:55 PM 81.7 °F 81.5 °F 57.0 °F 43% 29.78 in 10.0 mi SE 20.7 mph 29.9 mph N/A   Clear
6:15 PM 79.0 °F - 58.1 °F 49% 29.80 in 10.0 mi SE 17.3 mph 25.3 mph N/A   Clear
6:35 PM 77.2 °F - 59.0 °F 53% 29.82 in 10.0 mi ESE 15.0 mph 25.3 mph N/A   Scattered Clouds
6:55 PM 75.6 °F - 59.9 °F 58% 29.83 in 10.0 mi ESE 18.4 mph 24.2 mph N/A Thunderstorm Mostly Cloudy
7:15 PM 74.5 °F - 60.8 °F 62% 29.85 in 10.0 mi East 12.7 mph - N/A Thunderstorm Scattered Clouds
7:35 PM 65.7 °F - 48.0 °F 53% 29.89 in 10.0 mi NW 12.7 mph 20.7 mph N/A Thunderstorm Mostly Cloudy
7:55 PM 59.5 °F - 50.4 °F 72% 29.85 in 10.0 mi NE 13.8 mph - N/A Rain , Thunderstorm Light Thunderstorms and Rain
8:15 PM 60.8 °F - 49.8 °F 67% 29.82 in 10.0 mi NE 20.7 mph 24.2 mph N/A Rain , Thunderstorm Light Thunderstorms and Rain
8:35 PM 62.8 °F - 49.8 °F 63% 29.84 in 10.0 mi NE 18.4 mph 24.2 mph N/A   Clear
8:55 PM 61.3 °F - 49.8 °F 66% 29.86 in 10.0 mi ENE 8.1 mph 16.1 mph N/A   Clear
9:15 PM 61.9 °F - 50.0 °F 65% 29.91 in 10.0 mi North 6.9 mph - N/A   Mostly Cloudy
9:35 PM 61.5 °F - 52.2 °F 71% 29.91 in 10.0 mi North 16.1 mph - N/A   Mostly Cloudy
9:55 PM 62.8 °F - 52.3 °F 69% 29.92 in 10.0 mi North 11.5 mph - N/A   Mostly Cloudy
10:15 PM 62.8 °F - 52.9 °F 70% 29.89 in 10.0 mi NE 8.1 mph 17.3 mph N/A Thunderstorm Overcast
10:35 PM 61.3 °F - 53.1 °F 74% 29.89 in 10.0 mi ENE 5.8 mph - N/A   Scattered Clouds
10:55 PM 60.6 °F - 51.1 °F 71% 29.90 in 10.0 mi East 5.8 mph - N/A   Clear
11:15 PM 61.0 °F - 50.9 °F 69% 29.90 in 10.0 mi NW 3.5 mph - N/A   Clear
11:35 PM 59.0 °F - 53.2 °F 81% 29.89 in 10.0 mi West 5.8 mph - N/A   Clear
11:55 PM 57.9 °F - 52.7 °F 83% 29.88 in 10.0 mi West 4.6 mph - N/A   Clear